sat.trackr.live / text

‹ back to catalog

HULIANWANG JISHU SHIYAN*

NORAD 58691 · 2023-212A

PAYLOAD ACTIVE UNKNOWN

§ Identity

Operator
Country
PRC
Launch date
2023-12-30
Launch site
JSC
Launch vehicle
Mass (kg)
RCS (m²)

External: N2YO · Heavens-Above · Gunter

§ Orbital elements

Epoch: 2026-09-21T22:13:53.325696Z

Period
107.35 min
Inclination
50.0026°
Eccentricity
0.0000596
Mean motion
13.41462236 rev/d
Perigee alt
1,103.4 km
Apogee alt
1,104.3 km
Semi-major
7,482.0 km
B*
5.5543e-5
RAAN
349.3222°
Arg perigee
88.3276°
Mean anomaly
271.7670°
Rev number
13,423

§ Raw data

HULIANWANG JISHU SHIYAN*1 58691U 23212A   26264.92631164 -.00000097  00000+0  55543-4 0  99932 58691  50.0026 349.3222 0000596  88.3276 271.7670 13.41462236134238

JSON: /api/v1/satellites/58691 · /tle

For live sub-satellite position, see the globe view (requires WebGL).

§ Visibility from observer

Set your observer location to see the next 7 days of passes ≥ 10°. The values pass through the URL so the page stays shareable.

No JS? Fill the form by hand. The geolocation button needs JavaScript.